Home > Time Zones > World Clock > Weather > Iran > Tehran > Past weeks

Flag for Iran Weather past 2 weeks in Tehran, Iran

Now
86 °F

Clear.


Feels Like: 83 °F
Forecast: 61 / 90 °F
Wind: 9 mph from South

Location: Tehran-Mehrabad

Current Time: Sep 16, 2014 at 12:58:38 PM

Latest Report: Sep 16, 2014 at 12:30 PM


Visibility: 5 mi

Pressure: 29.89 "Hg

Humidity: 12%

Dew point: 28 °F

Location of TehranLocation

Historic Weather in Tehran — Graph

°F

Tehran temperature yesterday

Maximum temperature yesterday: 93 °F (at 3:30 PM)
Minimum temperature yesterday: 75 °F (at 4:30 AM)
Average temperature yesterday: 86 °F

Past Weeks' High & Low Weather Summary

 TemperatureHumidityPressure
High133 °F (Sep 9, 5:00 AM)56% (Sep 6, 5:30 AM)30.09 "Hg (Sep 6, 5:30 AM)
Low68 °F (Sep 6, 5:30 AM)5% (Sep 9, 5:00 AM)29.71 "Hg (Sep 5, 4:00 PM)
Average85 °F17%29.93 "Hg
* Reported Sep 1 11:30 AM — Sep 16 12:00 Noon, Tehran, Weather by CustomWeather, © 2014

Note: Actual official high and low records may vary slightly from our data, if they occured in-between our weather recording intervals... More about our weather records

Advertising

Tehran weather history for previous 24 hours

 ConditionsComfort  
Time TempWeatherWind HumidityBarometerVisibility
12:00 PM
Sep 16
86 °FClear.12 mph13%29.89 "Hg5 mi
11:30 AM86 °FClear.9 mph12%29.89 "Hg5 mi
11:00 AM86 °FClear.9 mph13%29.89 "Hg5 mi
10:30 AM88 °FClear.7 mph13%29.89 "Hg5 mi
10:00 AM88 °FSunny.9 mph9%29.89 "Hg10 mi
9:30 AM84 °FSunny.7 mph12%29.89 "Hg10 mi
9:00 AM81 °FSunny.7 mph15%29.89 "Hg10 mi
8:30 AM84 °FSunny.9 mph11%29.86 "Hg10 mi
8:00 AM82 °FClear.7 mph12%29.86 "Hg10 mi
7:30 AM81 °FClear.7 mph12%29.86 "Hg10 mi
7:00 AM81 °FClear.7 mph13%29.86 "Hg10 mi
6:30 AM79 °FClear.7 mph13%29.86 "Hg10 mi
5:30 AM75 °FClear.5 mph19%29.86 "Hg10 mi
5:00 AM75 °FClear.5 mph18%29.83 "Hg10 mi
4:30 AM79 °FClear.7 mph13%29.83 "Hg10 mi
4:00 AM81 °FClear.7 mph13%29.86 "Hg10 mi
3:30 AM81 °FClear.7 mph13%29.86 "Hg10 mi
3:00 AM82 °FClear.5 mph12%29.86 "Hg10 mi
2:30 AM82 °FClear.7 mph12%29.86 "Hg10 mi
2:00 AM82 °FClear.5 mph12%29.86 "Hg10 mi
1:30 AM82 °FClear.5 mph11%29.86 "Hg10 mi
1:00 AM82 °FClear.5 mph11%29.86 "Hg10 mi
12:30 AM84 °FClear.5 mph10%29.86 "Hg10 mi
12:00 AM84 °FClear.5 mph11%29.86 "Hg10 mi
11:30 PM
Sep 15
84 °FClear.5 mph12%29.86 "Hg10 mi
11:00 PM84 °FClear.5 mph11%29.86 "Hg10 mi
10:30 PM86 °FClear.9 mph9%29.86 "Hg10 mi
10:00 PM86 °FClear.7 mph10%29.86 "Hg10 mi
9:30 PM86 °FClear.5 mph10%29.86 "Hg10 mi
9:00 PM88 °FClear.7 mph9%29.86 "Hg10 mi
8:30 PM88 °FSunny.5 mph11%29.86 "Hg10 mi
8:00 PM90 °FSunny.5 mph9%29.83 "Hg10 mi
7:30 PM91 °FSunny.7 mph8%29.83 "Hg10 mi
7:00 PM91 °FSunny.9 mph7%29.86 "Hg10 mi
6:30 PM93 °FSunny.12 mph7%29.86 "Hg10 mi
6:00 PM93 °FSunny.9 mph7%29.86 "Hg10 mi
5:30 PM93 °FSunny.9 mph7%29.86 "Hg10 mi
5:00 PM93 °FSunny.9 mph6%29.86 "Hg10 mi
4:30 PM93 °FSunny.12 mph6%29.86 "Hg10 mi
4:00 PM93 °FSunny.12 mph7%29.86 "Hg10 mi
3:30 PM93 °FSunny.12 mph7%29.89 "Hg10 mi
3:00 PM91 °FSunny.12 mph7%29.89 "Hg10 mi
2:30 PM91 °FSunny.9 mph7%29.92 "Hg10 mi
2:00 PM91 °FSunny.14 mph6%29.92 "Hg10 mi
1:30 PM91 °FSunny.14 mph7%29.92 "Hg10 mi
1:00 PM91 °FSunny.9 mph7%29.95 "Hg10 mi
12:30 PM91 °FSunny.14 mph7%29.95 "Hg10 mi
12:00 PM90 °FSunny.14 mph7%29.95 "Hg10 mi
Weather by CustomWeather, © 2014

See weather overviewHow to use our weather pages